22.2.2020 Tornio Ralli

Tulokset  Keskeyttäneet (52)  AT-pisteet (7)  Tilastot Lähtöön oikeutettujen lista CSV


 << EK5 EK7 >> Yleiskilpailun tulos
Tornio Ralli
22.2.2020
EK 6, LUOKKATULOKSET
R-Rallicup
Tornion Ralliharrastajat
Ruottala
 
Luokka 1 , Historic gr2,4, a alle 1350 60-90 vm. 2wd , Lähti:2
EK6, 5.6km, nopein: 74.3km/h
SijNroNimiTulosEro
1112Janne Solatie €4:31,3
Tulos EK 6 jälkeen
SijNroNimiTulosEro
1112Janne Solatie €30:59,5


Keskeyttäneet: 111, Jussi Lappalainen €, 3B, Tekninen vika
 
Luokka 3 , F, A, HR alle 1650 2wd , Lähti:14
EK6, 5.6km, nopein: 95.7km/h
SijNroNimiTulosEro
1120Juho Nykänen €3:30,7
2121Mikko Kurkela €3:32,82,1
3122Marko Mansikkamäki €3:35,95,2
4124Mika Kaapu €3:36,35,6
5123Tomi Saari €3:36,76,0
6126Jani Kuivas €3:38,78,0
7133jani seppälä3:39,58,8
8125Sami Jokinen €3:41,811,1
9127Tommi Lämsä €3:42,111,4
10130Mikko Konola3:42,411,7
11128Petri Koski3:45,614,9
Tulos EK 6 jälkeen
SijNroNimiTulosEro
1121Mikko Kurkela €24:44,8
2120Juho Nykänen €24:45,6 0,8
3122Marko Mansikkamäki €25:00,9 16,1
4124Mika Kaapu €25:17,3 32,5
5130Mikko Konola25:18,6 33,8
6126Jani Kuivas €25:39,4 54,6
7123Tomi Saari €25:39,7 54,9
8125Sami Jokinen €25:56,3 1:11,5
9128Petri Koski26:16,3 1:31,5
10127Tommi Lämsä €26:18,9 1:34,1
11133jani seppälä27:21,6 2:36,8


Keskeyttäneet: 129, Reino Karhu, 3B, Tekninen vika  -   131, Timo Kukkohovi, 3A, Tekninen vika  -   132, Riku Petteri Koivula, 2A, Tekninen vika
 
Luokka 4 , F, A, HR alle 2100 2wd , Lähti:16
EK6, 5.6km, nopein: 90.8km/h
SijNroNimiTulosEro
1149Janne Peteri3:42,1
2136Esa Ketomäki €3:42,90,8
3148Jussi Teppo3:45,43,3
4137Kimmo Tukia3:50,18,0
5138Tomi Riihimäki €3:50,88,7
6143Lauri Hiltunen3:55,313,2
Tulos EK 6 jälkeen
SijNroNimiTulosEro
1148Jussi Teppo25:40,0
2149Janne Peteri25:43,1 3,1
3136Esa Ketomäki €25:44,3 4,3
4143Lauri Hiltunen26:16,0 36,0
5138Tomi Riihimäki €26:24,8 44,8
6137Kimmo Tukia26:50,4 1:10,4


Keskeyttäneet: 134, Vesa Pulkkinen €, 6A, Tekninen vika  -   135, Jari Korhonen €, 4B, Tekninen vika  -   139, Hannu Blek, 2B, Tekninen vika  -   140, Janne Valkama, 3B, Tekninen vika  -   141, Tomi Tauriainen, 6B, Ulosajo  -   142, Mika Posti, 2A, Tekninen vika  -   144, Manu Lampela, 4A, Tekninen vika  -   145, Heikki Tanninen, 6B, Ulosajo  -   146, Matias Salmela, 1B, Tekninen vika  -   147, Janne Hanhela, 3B, Tekninen vika
 
Luokka 5 , F, A, HR yli 2100 2wd , Lähti:23
EK6, 5.6km, nopein: 93.7km/h
SijNroNimiTulosEro
1169Mikko Hast3:35,2
2150Kari-Pekka Saari €3:35,60,4
3151Sami Ahonen €3:38,83,6
4162Harri Kervinen3:42,77,5
5168Pauli Junttila3:43,98,7
6153Jani Rihu €3:48,613,4
7161Jarmo Blinnikka3:56,120,9
8154Markus Mäkelä €3:57,422,2
9163Tuomo Palola3:58,823,6
10170Konsta Ollikainen4:00,625,4
11166Niko Pihlajaniemi4:00,725,5
12165Hermanni Ylikärppä4:09,133,9
13171Jari Mällinen4:11,236,0
14160Jarmo Hosionaho4:11,636,4
15164Erkki Hyytinen4:20,144,9
Tulos EK 6 jälkeen
SijNroNimiTulosEro
1162Harri Kervinen25:01,1
2151Sami Ahonen €25:06,1 5,0
3169Mikko Hast25:08,1 7,0
4150Kari-Pekka Saari €25:11,3 10,2
5168Pauli Junttila25:30,6 29,5
6161Jarmo Blinnikka26:17,4 1:16,3
7163Tuomo Palola26:37,2 1:36,1
8153Jani Rihu €26:43,9 1:42,8
9160Jarmo Hosionaho27:02,9 2:01,8
10154Markus Mäkelä €27:06,6 2:05,5
11170Konsta Ollikainen27:25,0 2:23,9
12165Hermanni Ylikärppä27:42,0 2:40,9
13166Niko Pihlajaniemi27:48,0 2:46,9
14171Jari Mällinen27:59,4 2:58,3
15164Erkki Hyytinen28:42,2 3:41,1


Keskeyttäneet: 152, Jarkko Jokiperä €, 2A, Tekninen vika  -   155, Jirka Lund €, 3A, Tekninen vika  -   156, Tero Pellinen €, 3B, Ulosajo  -   157, pasi hirvikoski €, 3A, Tekninen vika  -   158, Roni Slotte, 2A, Tekninen vika  -   159, Timo Hyyryläinen, 6B, Ulosajo  -   167, Urpo Kettunen, 5A, Tekninen vika  -   172, joni-petteri kaarlela, 4A, Tekninen vika
 
Luokka 6 , Senior 50 v. cc vapaa 2wd , Lähti:15
EK6, 5.6km, nopein: 87.4km/h
SijNroNimiTulosEro
1174Pauli Sinkkonen €3:50,6
2173petteri rantanen €3:53,02,4
3186Heikki Kauppi3:54,64,0
4175Markku Tuoriniemi €4:02,311,7
5180Arto Viinikka €4:10,620,0
6177Timo Ahonen €4:14,724,1
7178jari muhonen €4:16,425,8
8184Ilkka Alaoja4:19,128,5
9183Petri Poutanen4:25,635,0
10181Erkki Lindholm4:30,740,1
11179Eero Ojakoski €4:33,743,1
Tulos EK 6 jälkeen
SijNroNimiTulosEro
1173petteri rantanen €26:01,2
2174Pauli Sinkkonen €26:11,1*9,9
3175Markku Tuoriniemi €26:13,6 12,4
4186Heikki Kauppi26:36,3 35,1
5177Timo Ahonen €27:33,3 1:32,1
6180Arto Viinikka €28:08,9 2:07,7
7183Petri Poutanen28:40,8 2:39,6
8184Ilkka Alaoja28:46,5 2:45,3
9178jari muhonen €28:54,2 2:53,0
10179Eero Ojakoski €30:47,6 4:46,4
11181Erkki Lindholm31:00,7*4:59,5


Keskeyttäneet: 176, Pasi Kämäräinen €, 2B, Tekninen vika  -   182, Heikki Siitari, 4A, Tekninen vika  -   185, Tapio Alikoski, 3B, Tekninen vika  -   187, Heikki Hosionho, 5A, Tekninen vika
*AT-pisteet: 181, Erkki Lindholm, 1L, Vilppilähtö, 10,0  -   174, Pauli Sinkkonen €, 4L, Vilppilähtö, 10,0
 
Luokka 7 , V-1600 alle 1650 gr1, N ja V1600 2wd , Lähti:17
EK6, 5.6km, nopein: 94.8km/h
SijNroNimiTulosEro
14Joonas Tonteri €3:32,7
216Jani Ruuskanen3:46,313,6
3204Ville-Pekka Hast3:46,513,8
43Janne Rissanen €3:46,814,1
56Timo Aspegren3:48,515,8
67Sami Turpeenoja3:49,817,1
714Asko Laukkanen3:50,718,0
89Pulju Mika3:51,618,9
912Lasse Sirviö3:54,521,8
105Henry Roivainen3:56,223,5
1111Pertti Kallio3:58,826,1
1213Esa Ronkainen4:01,128,4
131Niko Törmä €4:03,731,0
1415Kari Nissilä4:04,331,6
158Markus Väätänen4:10,537,8
Tulos EK 6 jälkeen
SijNroNimiTulosEro
14Joonas Tonteri €25:52,8
2204Ville-Pekka Hast26:19,8 27,0
316Jani Ruuskanen26:39,8 47,0
414Asko Laukkanen27:02,2 1:09,4
56Timo Aspegren27:19,1 1:26,3
67Sami Turpeenoja27:27,6 1:34,8
712Lasse Sirviö27:28,9 1:36,1
89Pulju Mika27:38,4 1:45,6
911Pertti Kallio27:44,2 1:51,4
105Henry Roivainen27:49,7 1:56,9
111Niko Törmä €28:13,5 2:20,7
123Janne Rissanen €28:13,6 2:20,8
1315Kari Nissilä28:43,8 2:51,0
148Markus Väätänen29:20,4 3:27,6
1513Esa Ronkainen35:16,0 9:23,2


Keskeyttäneet: 2, Mika Ilomäki €, 3A, Tekninen vika  -   10, Juha Lindström, 4A, Tekninen vika
 
Luokka 8 , V-2000 alle 2050 gr1, N, V2000 2wd , Lähti:7
EK6, 5.6km, nopein: 92.3km/h
SijNroNimiTulosEro
120Saku Stenberg3:38,5
217Jarno Pentinpuro €3:38,90,4
319Kari Mutkala €3:45,77,2
424Mikko Salmela3:47,99,4
522Janne Kortelainen3:52,313,8
623Raimo Romppainen4:14,736,2
Tulos EK 6 jälkeen
SijNroNimiTulosEro
119Kari Mutkala €25:56,2
220Saku Stenberg26:00,0 3,8
317Jarno Pentinpuro €26:03,4 7,2
424Mikko Salmela27:10,4 1:14,2
522Janne Kortelainen27:43,1 1:46,9
623Raimo Romppainen28:31,4*2:35,2


Keskeyttäneet: 21, Leskelä Jouko, 2A, Tekninen vika
*AT-pisteet: 23, Raimo Romppainen, 1L, Vilppilähtö, 10,0
 
Luokka 9 , Nuoret V-1600 2wd , Lähti:11
EK6, 5.6km, nopein: 88.3km/h
SijNroNimiTulosEro
132Veeti Pulkkinnen3:48,3
231Miro Sakko3:51,22,9
335Valtteri Koski3:51,73,4
430Leevi Lassila3:53,45,1
525Tomi Tiilikainen €4:00,011,7
634Atte Kari4:00,512,2
727Aatu hirvikoski €4:07,218,9
826Nuutti Korhonen €4:16,027,7
929Aapo Erkkilä4:20,131,8
1033Joakim Goman25:10,521:22,2
Tulos EK 6 jälkeen
SijNroNimiTulosEro
135Valtteri Koski26:58,1
231Miro Sakko27:14,2 16,1
332Veeti Pulkkinnen27:27,1 29,0
430Leevi Lassila27:29,8 31,7
534Atte Kari28:09,6 1:11,5
627Aatu hirvikoski €28:36,9 1:38,8
726Nuutti Korhonen €29:27,2 2:29,1
829Aapo Erkkilä29:35,4 2:37,3
925Tomi Tiilikainen €32:43,8 5:45,7
1033Joakim Goman50:43,9 23:45,8


Keskeyttäneet: 28, Jesse Eteläniemi, 2B, Ulosajo
 
Luokka 11 , 4wd cc vapaa Kaikki ikäkaudet , Lähti:10
EK6, 5.6km, nopein: 103.3km/h
SijNroNimiTulosEro
139Joni Tolonen €3:15,2
249Kalle Viitanen3:24,18,9
342Tatu Soisalo €3:29,314,1
447Miikka Saari3:37,422,2
546Jukka Lappalainen3:46,431,2
645Ilkka Palomaa4:17,41:02,2
Tulos EK 6 jälkeen
SijNroNimiTulosEro
139Joni Tolonen €23:16,8
249Kalle Viitanen23:51,9 35,1
347Miikka Saari24:09,3 52,5
442Tatu Soisalo €24:21,2*1:04,4
545Ilkka Palomaa37:16,0 13:59,2
646Jukka Lappalainen45:52,3 22:35,5


Keskeyttäneet: 40, Petri Ylinen €, 4A, Tekninen vika  -   41, sauli väisänen €, 6A, Tekninen vika  -   43, Vesa-Pekka Palokangas €, 5A, Tekninen vika  -   48, Timo Luoto, 3A, Tekninen vika
*AT-pisteet: 42, Tatu Soisalo €, 1L, Vilppilähtö, 10,0  -   42, Tatu Soisalo €, 2L, Vilppilähtö, 10,0
 
Luokka 12 , 4 wd A, Fin-R cc vapaa Nuotti , Lähti:19
EK6, 5.6km, nopein: 108.3km/h
SijNroNimiTulosEro
150Kai Hyttinen €3:06,1
265Ari-Pekka Koivisto3:12,56,4
359Anssi-Jukka Rytkönen3:12,66,5
451jukka olkoniemi3:12,76,6
553Miikka Vuokila3:13,57,4
655Sami Mukkala3:17,611,5
767Risto Lokka3:20,013,9
864Kai Penttilä3:21,315,2
966Markku Viitanen3:22,216,1
1052Yrjö Martti3:23,317,2
1161Sami Valme3:27,020,9
1260Markku Alasuutari3:30,824,7
1354Miikka Kaskinen3:40,834,7
1458Mikko Suvinen3:45,038,9
1568Kari Heinonen3:57,251,1
Tulos EK 6 jälkeen
SijNroNimiTulosEro
150Kai Hyttinen €21:42,8
251jukka olkoniemi22:15,0 32,2
359Anssi-Jukka Rytkönen22:18,2 35,4
465Ari-Pekka Koivisto22:26,6 43,8
567Risto Lokka22:36,7 53,9
653Miikka Vuokila22:47,6 1:04,8
766Markku Viitanen22:49,2 1:06,4
855Sami Mukkala23:02,7 1:19,9
964Kai Penttilä23:16,9 1:34,1
1052Yrjö Martti23:25,4 1:42,6
1161Sami Valme23:56,2 2:13,4
1260Markku Alasuutari24:28,0 2:45,2
1354Miikka Kaskinen24:43,6 3:00,8
1458Mikko Suvinen24:56,0 3:13,2
1568Kari Heinonen26:33,8 4:51,0


Keskeyttäneet: 56, Jukka Ikonen, 4A, Tekninen vika  -   57, Vesa Luokkanen, 4A, Tekninen vika  -   62, Mika Pyyny, 5A, Tekninen vika  -   63, Juha Karilainen, 6A, Tekninen vika
 
Luokka 13 , R5, Lite-R cc vapaa Nuotti , Lähti:1
EK6, 5.6km, nopein: 97.5km/h
SijNroNimiTulosEro
169Jonna Olkoniemi3:26,7
Tulos EK 6 jälkeen
SijNroNimiTulosEro
169Jonna Olkoniemi23:15,3

 
Luokka 15 , F, A, HR yli 1650 2wd Nuotti , Lähti:20
EK6, 5.6km, nopein: 101km/h
SijNroNimiTulosEro
186Ville Hanhisuanto3:19,7
274Topi Vänttilä €3:22,12,4
376Juho Pietikäinen €3:22,12,4
475Max Karhapää €3:22,93,2
593Kalle Markkanen3:30,610,9
684Jari Saarnio3:32,212,5
785Henri Hökkä3:35,015,3
879Jari Suontausta €3:35,816,1
988Jari Kinnunen3:38,819,1
1090Jaakko hirvonsalo3:40,520,8
1182Jouni Moisala3:43,924,2
1289Sauli Tuomaala3:50,230,5
1381Toni Piiroinen €3:55,335,6
1483Raimo Tunkkari3:55,936,2
1587arto kylmäluoma3:59,539,8
1694Vesa Törmä4:09,049,3
1778Markku Hakkarainen €4:11,551,8
Tulos EK 6 jälkeen
SijNroNimiTulosEro
186Ville Hanhisuanto23:34,2
274Topi Vänttilä €23:46,4 12,2
376Juho Pietikäinen €23:54,3 20,1
475Max Karhapää €24:14,2 40,0
593Kalle Markkanen24:54,0 1:19,8
684Jari Saarnio25:01,8 1:27,6
788Jari Kinnunen25:06,7 1:32,5
879Jari Suontausta €25:32,8 1:58,6
985Henri Hökkä25:38,4 2:04,2
1090Jaakko hirvonsalo25:46,1 2:11,9
1182Jouni Moisala25:49,7 2:15,5
1289Sauli Tuomaala26:26,4 2:52,2
1381Toni Piiroinen €27:05,2 3:31,0
1487arto kylmäluoma27:40,4 4:06,2
1583Raimo Tunkkari27:57,1 4:22,9
1678Markku Hakkarainen €28:36,3 5:02,1
1794Vesa Törmä28:42,2 5:08,0


Keskeyttäneet: 77, Henrik Salo €, 4A, Tekninen vika  -   80, Juuso Vormisto €, 5A, Tekninen vika  -   92, Janne Seluska, 3A, Tekninen vika
 
Luokka 16 , Historic cc vapaa 2wd Nuotti , Lähti:2
EK6, 5.6km, nopein: 87.4km/h
SijNroNimiTulosEro
196Osmo Polojärvi3:50,7
295Juhani Pelkonen4:09,618,9
Tulos EK 6 jälkeen
SijNroNimiTulosEro
196Osmo Polojärvi26:32,8
295Juhani Pelkonen28:48,3 2:15,5

 
Luokka 17 , BMW orginal 2wd , Lähti:9
EK6, 5.6km, nopein: 93.7km/h
SijNroNimiTulosEro
198John Ruotsalainen €3:35,2
2101Jukka Anttila3:41,05,8
3100Sami Laurila3:41,36,1
499Jarno Saari €3:43,58,3
597Ville Pulkkinen €3:44,69,4
6103Ilpo Laitinen3:45,19,9
7105RIKU KOSKI3:58,523,3
8104Pauli Mikkola4:07,632,4
9102Juha Näsi4:15,139,9
Tulos EK 6 jälkeen
SijNroNimiTulosEro
1100Sami Laurila25:42,8
298John Ruotsalainen €25:44,0 1,2
399Jarno Saari €26:03,0 20,2
4105RIKU KOSKI26:12,2 29,4
597Ville Pulkkinen €26:12,7 29,9
6103Ilpo Laitinen26:27,7 44,9
7101Jukka Anttila26:41,6 58,8
8104Pauli Mikkola28:01,7 2:18,9
9102Juha Näsi28:35,6 2:52,8

 
Luokka 20 , Proto cc vapaa 2wd turbot , Lähti:3
EK6, 5.6km, nopein: 90.6km/h
SijNroNimiTulosEro
1108Jarno Puupponen €3:42,6
2110Mika Runtti3:50,78,1
Tulos EK 6 jälkeen
SijNroNimiTulosEro
1110Mika Runtti25:53,6
2108Jarno Puupponen €25:54,9 1,3


Keskeyttäneet: 109, Kari Herronen €, 2B, Tekninen vika